RH
56 46 43 46 45 42 44 62 86 76 58 41 36 34 36 34 43 49 52 55 63 67 76 71 75 76 65 60 60 63 74 85 95 97 97 92 93 94 92 92 92 93 94 92
75 46 44 48 42 36 33 34 36 35 42 32 28 26 28 27 27 39 45 48 56 63 63 66 70 71 62 60 58 59 63 71 74 77 79 87 87 85 85 90 90 93 95 93
86 51 44 69 60 45 36 30 32 39 31 25 25 25 25 25 26 29 40 47 56 66 63 64 66 66 66 58 55 57 59 61 64 65 66 70 70 68 74 79 80 85 92 85
79 64 93 44 24 22 25 23 20 20 18 22 24 24 25 24 26 30 30 35 52 65 65 65 64 68 66 53 54 57 57 57 60 61 59 59 60 61 66 68 69 71 78 78
84 77 52 38 26 24 32 38 27 42 41 41 32 40 45 51 35 40 51 56 60 68 69 65 65 65 56 52 54 56 61 60 58 57 56 57 56 60 60 60 61 70 65 68
74 72 66 39 22 30 58 62 71 58 49 52 38 69 66 69 72 62 49 61 67 69 70 59 59 55 52 54 59 58 60 64 64 57 58 60 64 68 60 57 67 69 73 82
94 95 76 30 44 48 62 80 56 54 42 51 60 62 64 68 77 57 48 50 61 66 60 59 52 49 52 53 62 57 56 58 61 63 70 75 72 68 68 67 66 79 87 91
73 78 71 64 49 75 67 54 49 50 50 59 55 52 63 54 82 73 44 49 54 54 53 52 53 48 48 51 51 49 53 56 58 60 52 55 73 71 71 78 87 86 84 87
68 60 77 76 76 49 43 50 57 62 56 57 67 66 56 65 61 53 48 48 48 49 51 50 45 44 47 49 49 50 54 56 59 58 55 57 64 68 69 73 81 81 83 88
89 40 50 72 76 56 46 52 52 56 61 53 61 62 64 65 59 48 41 40 39 45 50 52 46 44 46 48 48 52 58 58 58 61 58 58 60 60 64 74 76 74 78 86
75 39 36 38 37 38 33 44 43 44 44 43 47 57 68 62 48 42 38 37 40 47 51 51 47 46 46 48 50 54 57 56 59 59 57 57 56 58 60 72 66 71 79 85
86 50 51 38 36 35 31 26 37 43 41 40 41 67 81 85 81 44 38 38 42 46 49 48 46 46 47 49 49 54 57 57 61 61 56 56 58 77 77 80 78 78 81 90
37 33 31 34 30 26 26 23 22 24 25 34 46 60 65 71 84 73 53 42 43 47 48 48 48 48 47 50 52 56 56 58 60 59 53 56 64 72 87 81 76 81 79 78
26 30 35 27 27 22 19 20 25 21 22 27 30 53 59 61 70 76 84 83 55 57 49 49 52 62 60 59 61 68 62 65 61 67 68 69 72 81 88 90 93 92 76 77
30 26 25 21 21 20 20 20 22 23 24 27 28 36 55 69 71 78 83 82 80 73 78 66 62 73 61 70 76 72 65 68 74 80 81 78 80 84 87 87 88 90 91 85
26 20 22 25 23 24 23 23 29 34 37 41 45 52 55 51 55 68 75 75 89 87 79 72 65 72 63 67 72 76 76 79 74 79 80 79 81 84 84 85 86 88 89 91
30 31 30 31 32 34 35 40 44 52 66 74 84 97 97 95 87 86 99 97 94 100 92 85 87 83 80 81 73 73 79 76 75 76 75 77 80 83 83 84 86 87 88 89
28 27 31 39 44 48 49 50 56 64 82 92 96 98 98 99 98 99 99 100 100 100 100 99 90 86 85 85 70 71 78 76 77 78 75 80 79 77 80 81 84 85 84 88
32 36 42 46 51 56 61 70 80 90 91 96 98 100 100 96 96 94 96 100 100 100 100 96 87 80 81 78 68 70 77 77 81 79 77 79 82 78 81 83 85 85 92 94
43 45 48 57 68 80 87 98 99 99 95 94 93 97 98 96 95 100 100 98 94 93 98 91 82 76 78 76 74 73 81 89 90 79 82 81 84 84 83 80 81 89 91 92
78 86 99 100 100 99 97 99 96 98 100 100 96 98 97 93 95 100 99 98 91 99 92 90 79 79 77 74 74 90 94 96 87 82 83 85 84 83 84 84 84 92 93 89
92 97 100 100 97 97 96 94 90 100 99 94 93 96 96 93 98 97 99 98 94 95 89 87 79 78 78 90 97 98 96 84 90 86 86 86 86 86 87 86 87 92 94 89
85 89 92 100 99 95 98 98 100 100 97 96 96 95 95 93 99 99 96 91 93 92 88 88 83 83 87 96 99 99 94 96 96 92 92 90 87 87 87 86 87 91 89 93
82 84 84 87 86 84 87 88 97 93 100 95 95 94 92 98 100 98 96 89 88 94 96 94 97 97 97 99 99 96 97 97 97 97 96 90 90 87 87 86 87 88 91 89
86 88 82 88 78 76 78 78 77 77 84 86 82 84 90 91 100 97 97 97 96 95 97 97 97 98 98 97 97 97 98 97 97 96 95 93 90 88 88 85 88 89 88 88
76 75 74 76 79 81 82 78 79 84 86 99 91 96 94 94 94 92 93 96 96 96 97 98 98 98 98 98 97 97 97 97 96 96 95 93 89 88 87 86 88 89 88 87
74 84 76 78 81 83 86 88 92 98 95 100 96 94 93 94 94 92 92 95 96 97 98 98 98 98 97 97 97 97 97 97 95 95 95 91 89 92 88 88 90 89 86 89
Wind_Speed
18 20 20 21 20 17 18 17 14 19 23 21 21 17 14 16 7 10 13 14 14 15 15 16 16 14 14 13 12 12 11 12 11 10 10 10 9 7 7 8 5 4 2 3
15 20 21 21 21 27 26 23 24 23 23 20 23 22 17 17 17 15 15 15 16 16 17 18 18 16 16 14 13 13 13 13 13 13 13 11 10 10 9 7 6 4 3 3
18 19 20 14 20 21 24 23 23 22 20 19 20 21 20 17 17 15 15 16 19 21 20 20 21 19 17 16 15 14 14 14 14 13 13 12 11 11 10 10 9 7 4 6
11 13 15 13 19 23 23 22 22 23 23 16 18 14 19 19 13 16 16 18 22 18 18 18 18 18 17 19 17 15 15 15 14 14 13 13 12 12 11 10 9 8 8 7
13 13 17 23 22 19 16 16 15 15 16 17 16 14 19 23 11 5 2 5 19 20 17 19 19 20 19 19 17 16 15 15 15 14 14 13 12 11 9 9 8 6 5 5
12 12 14 19 18 9 12 14 10 16 12 13 13 6 6 12 13 11 8 14 15 14 14 17 17 19 18 17 17 17 15 14 14 14 13 12 10 8 7 6 6 6 6 7
10 9 8 14 13 17 8 6 10 6 8 10 8 9 8 9 10 9 5 13 17 19 18 18 18 17 16 16 16 14 14 14 13 12 10 9 8 6 6 8 6 7 8 5
7 6 11 13 4 5 4 7 10 11 5 9 11 10 13 7 6 13 16 13 15 13 14 16 18 17 16 16 15 15 15 14 14 12 10 9 9 7 8 8 8 7 8 6
7 4 9 5 10 9 5 5 6 7 7 8 12 13 13 4 6 2 14 12 12 13 15 15 16 16 17 16 17 16 16 16 14 13 11 11 10 9 8 9 7 6 7 6
13 8 7 12 10 14 3 3 4 3 5 8 10 13 17 4 7 4 12 11 12 14 14 14 14 14 14 16 16 17 16 15 13 12 11 10 8 7 7 8 7 7 7 6
13 6 4 5 2 5 2 3 3 5 7 7 7 7 10 8 8 7 10 11 11 11 12 14 14 13 15 17 17 17 15 14 13 11 11 10 9 6 6 6 8 7 6 5
5 6 7 2 2 6 7 6 4 7 8 5 6 6 10 10 12 3 5 8 10 11 11 13 14 13 16 17 17 16 15 12 11 10 10 9 9 8 15 13 14 11 14 10
10 12 7 5 7 8 10 10 8 5 8 8 4 6 7 4 7 8 8 5 7 9 9 10 12 13 14 15 15 16 13 13 10 10 10 10 11 10 9 9 17 18 21 19
17 16 13 7 7 7 7 9 8 8 5 5 6 6 5 4 5 7 4 10 2 3 9 10 9 8 10 12 12 12 12 13 11 9 9 8 9 10 9 8 7 6 12 13
16 16 10 7 6 6 7 7 7 8 8 7 6 4 8 9 7 8 11 14 8 4 5 6 8 8 12 11 11 13 11 9 10 8 7 8 9 10 9 8 8 8 7 8
6 3 5 6 7 8 8 7 8 8 8 10 10 9 9 9 4 11 12 12 14 15 16 15 13 11 14 14 12 9 9 13 12 9 9 9 9 10 10 9 9 9 9 9
2 7 7 8 5 7 7 8 7 7 7 6 8 10 11 9 8 7 6 5 8 7 8 10 10 11 12 13 15 10 9 11 15 10 10 10 10 10 10 9 9 9 9 10
6 6 4 4 4 5 6 5 5 7 7 8 8 8 7 8 9 9 10 7 2 3 6 10 14 13 12 12 13 11 11 12 11 11 10 10 10 10 10 9 10 10 8 12
1 2 3 3 4 5 6 5 5 5 7 7 7 6 4 8 9 10 10 5 8 8 7 10 17 19 16 16 14 11 12 13 11 10 10 12 10 9 9 9 9 9 7 10
4 3 2 4 7 6 5 3 4 4 5 8 8 7 8 8 9 8 6 10 11 5 11 12 16 16 16 18 15 11 13 13 12 11 11 11 10 9 9 10 9 9 9 9
6 5 4 4 3 4 5 5 6 6 3 4 8 7 8 10 9 6 5 5 8 5 11 16 13 11 12 15 14 12 13 13 13 12 11 11 10 9 9 9 8 9 10 9
2 3 0 2 4 6 6 5 5 3 4 6 7 6 7 8 5 3 3 4 1 9 8 9 9 15 14 19 11 10 11 13 10 10 10 10 10 9 9 8 8 8 9 9
2 1 1 3 5 7 3 2 4 3 4 4 5 6 6 5 3 3 3 1 3 4 6 7 8 15 19 13 9 11 14 12 10 10 10 9 9 9 8 8 8 8 8 8
1 1 4 5 6 6 6 3 3 3 3 4 3 4 5 4 0 2 4 4 7 4 3 5 10 16 17 8 9 11 11 10 10 9 9 11 8 8 8 8 8 7 8 9
3 3 5 5 5 5 3 1 3 3 3 2 1 1 3 3 2 2 2 4 7 7 6 14 16 15 9 10 11 10 10 9 9 9 9 9 8 8 8 8 8 8 8 7
2 3 3 4 3 2 3 2 3 1 2 2 2 1 2 2 2 3 3 5 5 8 6 7 7 7 8 10 10 10 10 9 9 9 9 8 9 8 8 8 8 8 8 7
3 2 4 4 2 1 0 1 2 2 2 2 3 2 1 2 3 4 6 6 5 6 6 6 6 7 8 9 9 9 9 8 10 9 8 8 8 8 8 8 8 8 7 7
Wind_Direction
266 273 276 280 283 282 261 243 246 281 281 283 285 273 270 285 232 184 187 172 176 177 150 154 149 153 154 157 165 156 142 134 124 119 111 109 112 112 110 102 111 110 108 85
249 260 266 271 271 271 272 269 263 258 263 262 270 280 270 259 255 212 199 198 182 180 164 163 154 163 157 164 176 164 161 154 146 142 141 136 140 144 131 127 133 128 120 119
250 262 269 265 241 253 262 267 272 274 275 277 272 264 263 255 245 243 201 203 186 183 182 172 159 162 165 166 173 173 167 160 158 156 156 154 159 149 153 151 160 149 188 162
267 283 271 266 268 264 269 272 272 273 270 277 286 286 283 273 245 240 229 218 186 180 183 171 150 157 168 165 172 176 173 160 162 162 159 159 166 158 162 168 155 166 190 194
249 253 273 282 274 278 298 289 315 339 346 346 333 338 329 352 330 334 102 47 160 173 170 161 160 163 169 170 168 172 172 165 165 168 162 164 167 161 166 160 171 139 137 108
234 242 258 258 285 15 349 277 26 6 350 351 331 348 312 335 339 310 96 120 131 142 152 163 159 166 171 164 165 175 168 165 160 168 164 164 158 161 153 145 119 115 100 83
244 248 260 293 325 317 237 337 353 312 360 6 347 359 321 349 334 324 93 137 145 161 168 162 159 162 165 163 169 166 161 159 159 164 152 145 148 141 136 121 124 115 108 109
218 234 262 9 321 304 5 312 334 309 17 336 335 336 347 307 252 267 192 146 139 151 153 151 152 162 167 167 158 155 160 158 161 155 153 151 141 137 123 120 118 136 147 152
279 278 149 135 279 282 25 360 332 342 353 340 335 331 318 349 263 298 119 133 146 155 153 152 158 165 167 161 157 161 161 161 159 159 153 155 151 149 145 138 148 173 167 167
291 303 124 183 211 246 75 9 354 300 292 311 327 331 334 133 297 140 134 155 160 147 146 150 159 168 159 153 160 157 156 159 157 157 153 159 154 161 161 157 165 183 179 175
302 316 30 94 75 14 11 179 294 317 290 299 321 353 339 294 214 188 166 159 145 151 154 159 162 168 156 156 159 157 157 159 160 160 160 161 154 167 171 159 174 180 179 165
268 316 294 261 360 337 321 318 222 258 282 315 274 111 90 322 3 10 158 131 140 152 160 163 167 170 152 159 163 159 161 163 164 158 165 163 136 86 76 113 95 103 113 110
306 324 318 333 325 304 289 292 293 338 328 317 94 155 176 150 134 358 352 125 148 153 160 166 166 169 156 159 163 162 164 162 157 156 173 164 139 132 122 91 96 109 117 121
290 294 301 301 293 298 324 317 332 311 304 294 293 180 205 197 137 128 58 323 83 196 174 174 168 156 150 154 155 155 160 157 159 157 170 160 147 141 137 141 131 121 127 129
255 264 289 292 283 289 276 273 278 294 306 313 315 292 164 183 191 198 192 181 242 185 104 153 175 160 154 147 147 154 155 158 153 147 153 148 136 139 143 149 148 144 139 134
260 263 297 299 288 285 296 318 337 347 345 349 350 4 1 355 335 211 210 190 181 208 195 196 172 162 158 154 156 147 143 143 147 146 143 144 146 150 154 163 162 164 166 154
245 253 248 251 300 356 352 351 338 352 359 351 12 13 356 351 334 320 320 276 194 173 167 160 162 152 156 155 160 157 145 149 149 147 156 158 159 163 164 169 169 167 165 162
263 256 21 8 335 338 330 346 358 6 20 6 343 339 332 319 296 295 298 318 6 92 153 152 150 148 149 156 161 157 152 154 155 157 160 165 169 170 172 174 167 168 172 163
180 340 56 35 19 351 349 351 17 14 319 322 314 303 295 292 283 284 280 246 226 200 189 158 156 155 156 160 156 158 157 158 155 164 167 169 171 173 175 173 165 167 145 149
143 143 94 49 43 23 355 2 305 294 316 307 301 302 295 288 293 266 241 239 232 237 149 158 160 162 161 160 157 159 159 157 167 167 168 170 173 176 172 168 165 146 150 154
63 76 73 36 343 322 324 318 296 292 280 287 295 297 300 302 288 276 242 237 235 189 168 161 168 163 162 162 159 163 160 163 174 167 167 169 171 171 167 165 163 151 151 154
197 114 74 333 335 294 273 274 286 273 299 302 301 299 300 302 285 291 269 273 326 152 158 168 178 170 165 159 162 162 162 163 161 164 164 165 167 165 163 162 159 154 150 157
151 114 205 199 245 268 260 268 243 223 284 300 306 306 301 298 331 313 280 116 116 169 154 172 177 160 159 165 164 155 153 153 158 158 160 161 163 161 159 158 153 147 150 144
331 269 308 308 304 297 296 338 151 222 198 244 252 296 306 322 112 12 1 97 131 135 127 153 145 148 152 158 145 141 139 147 148 148 152 157 154 150 147 148 145 140 138 137
171 284 270 248 294 302 313 48 347 275 250 236 20 311 355 357 328 81 114 97 100 99 107 124 130 129 129 136 140 140 141 141 140 142 145 144 143 144 141 144 139 140 139 140
255 282 335 327 297 321 338 4 288 316 330 209 139 56 40 21 71 92 101 125 111 119 124 134 137 127 131 130 129 132 131 132 135 135 136 137 139 137 137 136 135 133 135 132
174 195 286 283 261 233 12 23 328 305 151 20 90 93 106 104 95 115 117 116 117 120 131 125 122 119 121 123 123 123 125 126 127 129 130 133 133 129 133 130 129 128 128 120